Погода в Москве

Погода в Москве : погода сейчас, прогноз погоды и архив. Всё, что Вы хотите узнать о погоде в Москве!

Хотите узнать прогноз погоды в Москве? Тогда Вам сюда: Погода в Москве

Поиск расширенной информации на нашем сайте:

Другие новости

Новости СМИ2

Главная страница сайта

Новости сайта

03.07.2017

Напоминаем, что на нашем специализированном сайте Метеоцентр.Азия вы можете получить высокодетализированные автоматические прогнозы погоды по пунктам России, СНГ и мира в авиационном формате (включающие направление и скорость ветра, видимость, явления погоды, количество и форму облачности, нижнюю и верхнюю границу облачности).


Погода в Москве - сегодня

Время (UTC), дата Ветер
(°,м/с) 
Видим.   Явления Облачность Т
(°С)
Тd
(°С)
f(%) Тe
(°С)
Pmin
(гПа)
dP
(гПа)
Po
(мм)
O2
(г/м3)
Тmin Tmax R s Состояние
почвы
03 21.09.17 030 (СВ) 4000 м  дымка  10/3 1000 м средняя 
[Sc|Ac und]
+9.4 +7.9 90 +10  1027.9  0.7  756  293  +7.7         
06 21.09.17 090 (В) 4000 м  в посл. час дождь  10/6 1000 м средняя 
[Sc|Ac As]
+10.7 +8.3 85 +12  1028.1  0.3  757  292  +7.7    0.1    влажная 
09 21.09.17 110 (В) 10 км  {дождь}  10/10 1500 м 
[Sc]
+12.7 +9.4 80 +14  1028.2  0.2  757  290           
12 21.09.17 110 (В) 10 км  {дождь}  10/10 1500 м 
[Sc]
+15.3 +8.4 63 +16  1028.5  0.5  757  287           
15 21.09.17 100 (В) 10 км    6/0 верхняя 
[Ci fib]
+13.6 +8 69 +14  1028.6  757  289      0.1     
18 21.09.17 090 (В) н/о    ясно 
+11.2 +7.5 78 +12  1030.1  1.3  758  292    +15.9  0.0     
21 21.09.17 100 (В) н/о    ясно 
+10.8 +7.4 79 +12  1031.2  1.1  759  293           
00 22.09.17 080 (В) н/о    ясно 
+8.7 +6.4 85 +10  1032.3  0.9  760  296           
03 22.09.17 090 (В) н/о  дымка  8/8 300 м 
[Frnb]
+7.7 +5.9 88 +9  1033.1  0.7  760  297  +7.6         
06 22.09.17 120 (ЮВ) 10 км    9/6 300 м средняя 
[Cu Sc|Ac trans]
+9 +5.4 78 +8  1033.8  0.8  761  296  +7.6        влажная 
09 22.09.17 110 (В) 10 км    5/0 верхняя 
[Ci fib]
+12.5 +4.4 58 +13  1033.4  -0.2  761  292           
12 22.09.17 090 (В) 10 км    ясно 
+14.6 +2.3 43 +15  1033  -0.2  760  291           
15 22.09.17 110 (В) 10 км    ясно 
+12.7 +4.6 58 +13  1032.7  -0.4  760  292           
18 22.09.17 130 (ЮВ) н/о    ясно 
+10.2 +4.8 69 +11  1033.8  0.9  761  295    +14.7       
21 22.09.17 140 (ЮВ) н/о    ясно 
+8.1 +4.6 79 +9  1035  762  297           
00 23.09.17 тихо ()   н/о  дымка  ясно 
+5.8 +4.3 90 +6  1035.3  0.2  762  300           
03 23.09.17 тихо ()   н/о  дымка  ясно 
+4.1 +3.5 96 +4  1035.9  0.4  762  302  +3.9         
06 23.09.17 100 (В) 10 км  дымка  5/0 верхняя 
[Ci fib]
+8.3 +4.8 79 +9  1036.1  0.6  762  297  +3.7        влажная 
09 23.09.17 120 (ЮВ) 10 км    ясно 
+13.3 +5.6 60 +14  1036.3  0.5  763  292           
12 23.09.17 130 (ЮВ) 10 км    ясно 
+16.4 +6.2 51 +18  1035.2  -0.8  762  289           
15 23.09.17 тихо ()   10 км    ясно 
+13.9 +7 63 +14  1034.9  -0.5  762  291           
18 23.09.17 тихо ()   н/о  дымка  ясно 
+7.7 +6.5 92 +8  1035.7  0.4  762  298    +16.8       
21 23.09.17 тихо ()   н/о  дымка  ясно 
+6 +5.4 96 +6  1036.7  0.8  763  300           
00 24.09.17 тихо ()   н/о  дымка  ясно 
+4.9 +4.5 97 +5  1037.5  0.7  763  301           
03 24.09.17 тихо ()   н/о  дымка  ясно 
+4.3 +4 98 +4  1037.6  0.1  763  302  +4.1         
Время (UTC), дата Ветер
(°,м/с) 
Видим.   Явления Облачность Т
(°С)
Тd
(°С)
f(%) Тe
(°С)
Pmin
(гПа)
dP
(гПа)
Po
(мм)
O2
(г/м3)
Тmin Tmax R s Состояние
почвы

Для получения пояснительной информации подведите курсор к названию столбца.

ПОГОДА в Москве - архив

Всё, что Вы хотите узнать о погоде в Москве - удобно и подробно!

Выберите нужную дату (начиная с 1 января 2015* года) и нажмите кнопку "Найти".
Будут отображены архивные сводки погоды по пункту Москва, начиная с указанной даты.


Отображать данные в формате CSV (для использования в таблицах Excel)


Внимание! Наш архив погоды предназначен исключительно для личного некоммерческого использования в познавательных целях. Если Вам необходимы официальные справки о состоянии погоды (для производственных, юридических, коммерческих и т.п. целей), обращайтесь в органы Росгидромета.

*Примечание: данная дата относится к архиву по метеостанциям СССР (Россия, СНГ, Балтия).
Архив по метеостанциям Зарубежной Европы и Азии (кроме Китая) хранится 10 дней, по другим регионам земного шара (Китай, Африка, Америка, Австралия, Океания) - 1 день.

Москва - район местоположения метеостанции


Название, широта, долгота, высота метеостанции:
Москва (ВВЦ) 55.8°ш. 37.6°д. 156 м над ур. моря [Российская Федерация]

Дополнительная информация

В oтличие oт бoльшинства пoгoдных сайтoв мы публикуем пoдрoбную метеoинфoрмацию в детальнoм прoфессиoнальнoм фoрмате.

Характеристики температуры и влажнoсти вoздуха измеряются на высoте 2 м в тени вдали oт зданий и деревьев.
Скoрoсть ветра измеряется на высoте 10 м (на урoвне рoста челoвека скoрoсть ветра ниже в 1.5-2 раза). Если метеoстанция нахoдится в гoрoде или в лесу, тo скoрoсть ветра занижена на 2-4 м/с пo сравнению с oткрытым местoм. Скoрoсть ветра над акватoриями крупных рек и oзёр, а также на вершинах хoлмoв на 2-5 м/с выше, чем в oбычных услoвиях.
Атмoсфернoе давление в разных тoчках местнoсти мoжет значительнo oтличаться oт давления на метеoстанции, в зависимoсти oт услoвий рельефа (при пoдъёме на 10 м давление пoнижается примернo на 1 мм рт.ст.).